User: anonymous   Login
Location: Unspecified
(0.0000°N, 0.0000°E)
Time: 10:01:47
(UTC+00:00)
Language:

HULIANWANG DIGUI-22 - Orbit

View from above orbital plane
View from above orbital plane
View from above satellite
View from above satellite

Ground track
Ground track

The orbit is defined by the following mean orbital elements,

1 63689U          26145.60198355 +.00000000 +00000-0 +91039-4 0 00006
2 63689  86.5027 320.6713 0001400  83.4186 276.7107 13.24408047    02
Epoch (UTC): 25 May 2026 14:26:51
Eccentricity: 0.0001400
inclination: 86.5027°
perigee height: 1167 km
apogee height: 1169 km
right ascension of ascending node: 320.6713°
argument of perigee: 83.4186°
revolutions per day: 13.24408047
mean anomaly at epoch: 276.7107°

The dashed part of the orbit path shows where the satellite is in the earth's shadow,  

DLR